When you browse on this site, cookies collect data to enhance your experience and personalize the content and advertising you see.
Visit our Privacy Policy to learn more. By continuing to use the site, you agree to this use of cookies and data.
  • în România
  • Lista ţărilor
  • Pe 7 zile
  • Temperatura apei
  • Meteo pe hartă
  • Widget-uri
  • user-avatar
    Intrare

    Meteo pe oră la Arakaka

    Astăzi, 22 Ianuarie, Miercuri

    Timp Temperatura Precipitaţii Vânt Presiune Umiditate
    00:00 +21°C° 0 mm 0 m/s 753 mmHg 99%
    01:00 +21°C° 0 mm 0 m/s 752 mmHg 99%
    02:00 +20°C° 0 mm 0 m/s 752 mmHg 99%
    03:00 +20°C° 0 mm 0 m/s 752 mmHg 99%
    04:00 +20°C° 0 mm 0 m/s 752 mmHg 99%
    05:00 +20°C° 0 mm 0 m/s 752 mmHg 99%
    06:00 +21°C° 0 mm 0 m/s 752 mmHg 97%
    07:00 +22°C° 0 mm 0 m/s 753 mmHg 95%
    08:00 +25°C° 0 mm 1 m/s 753 mmHg 92%
    09:00 +27°C° 0 mm 1 m/s 753 mmHg 81%
    10:00 +29°C° 0 mm 1 m/s 753 mmHg 69%
    11:00 +31°C° 0 mm 1 m/s 754 mmHg 57%
    12:00 +32°C° 0 mm 1 m/s 753 mmHg 54%
    13:00 +32°C° 0 mm 1 m/s 752 mmHg 51%
    14:00 +33°C° 0 mm 1 m/s 751 mmHg 48%
    15:00 +32°C° 0.1 mm 1 m/s 751 mmHg 55%
    16:00 +31°C° 0.1 mm 1 m/s 751 mmHg 63%
    17:00 +29°C° 0.1 mm 1 m/s 750 mmHg 71%
    18:00 +28°C° 0 mm 1 m/s 751 mmHg 80%
    19:00 +26°C° 0 mm 1 m/s 751 mmHg 88%
    20:00 +24°C° 0 mm 1 m/s 752 mmHg 97%
    21:00 +24°C° 0 mm 1 m/s 752 mmHg 98%
    22:00 +24°C° 0 mm 1 m/s 752 mmHg 98%
    23:00 +23°C° 0 mm 1 m/s 753 mmHg 99%

    Mâine, 23 Ianuarie, Joi

    Timp Temperatura Precipitaţii Vânt Presiune Umiditate
    00:00 +21°C° 0 mm 0 m/s 752 mmHg 99%
    01:00 +21°C° 0 mm 0 m/s 752 mmHg 99%
    02:00 +21°C° 0 mm 0 m/s 752 mmHg 99%
    03:00 +21°C° 0 mm 0 m/s 752 mmHg 99%
    04:00 +21°C° 0 mm 0 m/s 752 mmHg 99%
    05:00 +21°C° 0 mm 0 m/s 752 mmHg 98%
    06:00 +21°C° 0 mm 0 m/s 752 mmHg 96%
    07:00 +24°C° 0 mm 1 m/s 753 mmHg 93%
    08:00 +24°C° 0 mm 1 m/s 753 mmHg 91%
    09:00 +26°C° 0 mm 1 m/s 753 mmHg 79%
    10:00 +28°C° 0 mm 1 m/s 753 mmHg 68%
    11:00 +30°C° 0 mm 1 m/s 754 mmHg 56%
    12:00 +32°C° 0 mm 1 m/s 753 mmHg 52%
    13:00 +33°C° 0 mm 1 m/s 752 mmHg 47%
    14:00 +34°C° 0 mm 1 m/s 751 mmHg 43%
    15:00 +33°C° 0 mm 1 m/s 750 mmHg 47%
    16:00 +32°C° 0 mm 1 m/s 750 mmHg 51%
    17:00 +31°C° 0 mm 1 m/s 750 mmHg 55%
    18:00 +29°C° 0 mm 1 m/s 750 mmHg 64%
    19:00 +27°C° 0 mm 1 m/s 751 mmHg 73%
    20:00 +24°C° 0 mm 2 m/s 751 mmHg 82%
    21:00 +24°C° 0 mm 1 m/s 752 mmHg 87%
    22:00 +23°C° 0 mm 1 m/s 752 mmHg 92%
    23:00 +22°C° 0 mm 1 m/s 752 mmHg 97%

    Poimâine, 24 Ianuarie, Vineri

    Timp Temperatura Precipitaţii Vânt Presiune Umiditate
    00:00 +20°C° 0 mm 0 m/s 752 mmHg 98%
    01:00 +19°C° 0 mm 0 m/s 752 mmHg 98%
    02:00 +19°C° 0 mm 0 m/s 751 mmHg 99%
    03:00 +19°C° 0 mm 0 m/s 751 mmHg 99%
    04:00 +19°C° 0 mm 0 m/s 752 mmHg 99%
    05:00 +19°C° 0 mm 0 m/s 752 mmHg 99%
    06:00 +22°C° 0 mm 1 m/s 752 mmHg 96%
    07:00 +23°C° 0 mm 1 m/s 753 mmHg 93%
    08:00 +24°C° 0 mm 1 m/s 754 mmHg 90%
    09:00 +25°C° 0 mm 1 m/s 754 mmHg 81%
    10:00 +27°C° 0 mm 1 m/s 754 mmHg 73%
    11:00 +29°C° 0 mm 2 m/s 754 mmHg 64%
    12:00 +30°C° 0 mm 2 m/s 753 mmHg 57%
    13:00 +32°C° 0 mm 1 m/s 752 mmHg 50%
    14:00 +33°C° 0 mm 1 m/s 752 mmHg 44%
    15:00 +32°C° 0 mm 1 m/s 751 mmHg 49%
    16:00 +32°C° 0 mm 1 m/s 751 mmHg 54%
    17:00 +31°C° 0 mm 1 m/s 750 mmHg 59%
    18:00 +29°C° 0 mm 1 m/s 751 mmHg 68%
    19:00 +27°C° 0 mm 1 m/s 752 mmHg 76%
    20:00 +25°C° 0 mm 1 m/s 752 mmHg 85%
    21:00 +24°C° 0 mm 1 m/s 753 mmHg 89%
    22:00 +24°C° 0 mm 1 m/s 753 mmHg 92%
    23:00 +23°C° 0 mm 1 m/s 753 mmHg 96%

    25 Ianuarie, Sâmbătă

    Timp Temperatura Precipitaţii Vânt Presiune Umiditate
    00:00 +23°C° 0 mm 1 m/s 753 mmHg 97%
    01:00 +20°C° 0 mm 0 m/s 753 mmHg 98%
    02:00 +20°C° 0 mm 0 m/s 753 mmHg 99%
    03:00 +20°C° 0 mm 0 m/s 753 mmHg 99%
    04:00 +20°C° 0 mm 0 m/s 753 mmHg 99%
    05:00 +20°C° 0 mm 0 m/s 753 mmHg 99%
    06:00 +23°C° 0 mm 1 m/s 753 mmHg 96%
    07:00 +24°C° 0 mm 1 m/s 754 mmHg 93%
    08:00 +25°C° 0 mm 1 m/s 755 mmHg 90%
    09:00 +26°C° 0 mm 1 m/s 755 mmHg 83%
    10:00 +28°C° 0 mm 1 m/s 755 mmHg 75%
    11:00 +29°C° 0 mm 1 m/s 755 mmHg 67%
    12:00 +30°C° 0 mm 1 m/s 754 mmHg 61%
    13:00 +32°C° 0 mm 1 m/s 753 mmHg 54%
    14:00 +34°C° 0 mm 2 m/s 752 mmHg 48%
    15:00 +33°C° 0 mm 1 m/s 752 mmHg 51%
    16:00 +32°C° 0 mm 1 m/s 751 mmHg 54%
    17:00 +32°C° 0 mm 1 m/s 751 mmHg 57%
    18:00 +30°C° 0 mm 1 m/s 752 mmHg 66%
    19:00 +27°C° 0 mm 1 m/s 752 mmHg 75%
    20:00 +25°C° 0 mm 1 m/s 752 mmHg 84%
    21:00 +24°C° 0 mm 1 m/s 753 mmHg 89%
    22:00 +24°C° 0 mm 1 m/s 753 mmHg 93%
    23:00 +23°C° 0 mm 1 m/s 754 mmHg 98%

    26 Ianuarie, Duminică

    Timp Temperatura Precipitaţii Vânt Presiune Umiditate
    00:00 +23°C° 0 mm 1 m/s 753 mmHg 99%
    01:00 +22°C° 0 mm 1 m/s 753 mmHg 99%
    02:00 +20°C° 0 mm 0 m/s 752 mmHg 99%
    03:00 +20°C° 0 mm 0 m/s 753 mmHg 99%
    04:00 +20°C° 0 mm 0 m/s 753 mmHg 99%
    05:00 +20°C° 0 mm 0 m/s 753 mmHg 99%
    06:00 +21°C° 0 mm 0 m/s 753 mmHg 96%
    07:00 +22°C° 0 mm 0 m/s 754 mmHg 94%
    08:00 +22°C° 0 mm 0 m/s 754 mmHg 91%
    09:00 +24°C° 0 mm 0 m/s 754 mmHg 83%
    10:00 +28°C° 0 mm 1 m/s 754 mmHg 75%
    11:00 +30°C° 0 mm 1 m/s 754 mmHg 67%
    12:00 +30°C° 0 mm 1 m/s 754 mmHg 64%
    13:00 +31°C° 0 mm 1 m/s 753 mmHg 61%
    14:00 +31°C° 0 mm 1 m/s 752 mmHg 58%
    15:00 +31°C° 0 mm 1 m/s 752 mmHg 62%
    16:00 +31°C° 0 mm 1 m/s 751 mmHg 65%
    17:00 +30°C° 0 mm 1 m/s 751 mmHg 68%
    18:00 +28°C° 0.1 mm 1 m/s 752 mmHg 77%
    19:00 +27°C° 0.1 mm 1 m/s 752 mmHg 86%
    20:00 +25°C° 0.1 mm 1 m/s 753 mmHg 96%
    21:00 +25°C° 0 mm 1 m/s 753 mmHg 97%
    22:00 +24°C° 0 mm 1 m/s 754 mmHg 98%
    23:00 +24°C° 0 mm 1 m/s 754 mmHg 99%

    27 Ianuarie, Luni

    Timp Temperatura Precipitaţii Vânt Presiune Umiditate
    00:00 +22°C° 0 mm 0 m/s 754 mmHg 99%
    01:00 +22°C° 0 mm 0 m/s 753 mmHg 99%
    02:00 +21°C° 0 mm 0 m/s 753 mmHg 99%
    03:00 +21°C° 0 mm 0 m/s 753 mmHg 99%
    04:00 +21°C° 0 mm 0 m/s 753 mmHg 99%
    05:00 +21°C° 0 mm 0 m/s 753 mmHg 99%
    06:00 +22°C° 0 mm 0 m/s 753 mmHg 96%
    07:00 +23°C° 0 mm 0 m/s 754 mmHg 94%
    08:00 +26°C° 0 mm 1 m/s 754 mmHg 91%
    09:00 +28°C° 0 mm 1 m/s 754 mmHg 80%
    10:00 +30°C° 0 mm 1 m/s 754 mmHg 69%
    11:00 +32°C° 0 mm 2 m/s 754 mmHg 57%
    12:00 +34°C° 0.1 mm 2 m/s 754 mmHg 57%
    13:00 +34°C° 0.1 mm 2 m/s 753 mmHg 56%
    14:00 +33°C° 0.1 mm 1 m/s 752 mmHg 55%
    15:00 +32°C° 0.2 mm 2 m/s 751 mmHg 63%
    16:00 +30°C° 0.2 mm 2 m/s 751 mmHg 71%
    17:00 +29°C° 0.2 mm 2 m/s 751 mmHg 79%
    18:00 +28°C° 0 mm 1 m/s 752 mmHg 84%
    19:00 +26°C° 0 mm 1 m/s 752 mmHg 90%
    20:00 +25°C° 0 mm 1 m/s 753 mmHg 95%
    21:00 +25°C° 0 mm 1 m/s 753 mmHg 96%
    22:00 +24°C° 0 mm 1 m/s 753 mmHg 97%
    23:00 +24°C° 0 mm 1 m/s 754 mmHg 98%
    Arată mai mult